カタログに戻る

SL-3 R/B

運用中PO
NORAD 11608·ROCKET BODY·🇷🇺 Russia

打ち上げ Oct 31, 1979 から Plesetsk Cosmodrome

Loading…

次のパス (今後24時間)

TLE

最新Source: Space-Track

元期: Sep 14, 2026, 12:29 UTC

1 11608U 79095B   26257.52054993  .00000291  00000-0  16581-3 0  9991
2 11608  81.2161 173.6826 0054438  36.0645 324.4176 14.06574389404370

AllMySatでSL-3 R/Bをリアルタイム追跡

Download on the App Store